| time (UTC) | temp F | wind direction | speed MPH | gust MPH | rain 1hr in | rain 24hr in | rain mn in | humidity % | barometer mb |
| 20260507223048 | 65 | 319 | 10.0 | 15.0 | 0.00 | 0.00 | 0.00 | 24 | 995.5 |
| 20260507222547 | 65 | 315 | 10.0 | 15.0 | 0.00 | 0.00 | 0.00 | 23 | 995.5 |
| 20260507222047 | 65 | 284 | 11.0 | 15.0 | 0.00 | 0.00 | 0.00 | 23 | 995.5 |
| 20260507221548 | 65 | 5 | 10.0 | 16.0 | 0.00 | 0.00 | 0.00 | 23 | 995.5 |
| 20260507221048 | 65 | 337 | 9.0 | 18.0 | 0.00 | 0.00 | 0.00 | 23 | 995.6 |
| 20260507220546 | 65 | 292 | 11.0 | 18.0 | 0.00 | 0.00 | 0.00 | 23 | 995.7 |
| 20260507220053 | 64 | 313 | 9.0 | 16.0 | 0.00 | 0.00 | 0.00 | 23 | 995.7 |
| 20260507215545 | 65 | 317 | 10.0 | 20.0 | 0.00 | 0.00 | 0.00 | 23 | 995.9 |
| 20260507215044 | 65 | 333 | 11.0 | 20.0 | 0.00 | 0.00 | 0.00 | 24 | 995.9 |
| 20260507214045 | 65 | 321 | 9.0 | 19.0 | 0.00 | 0.00 | 0.00 | 24 | 995.9 |
| 20260507213544 | 65 | 331 | 12.0 | 23.0 | 0.00 | 0.00 | 0.00 | 23 | 996.0 |
| 20260507213045 | 65 | 327 | 10.0 | 22.0 | 0.00 | 0.00 | 0.00 | 24 | 996.2 |
| 20260507212542 | 65 | 311 | 14.0 | 22.0 | 0.00 | 0.00 | 0.00 | 23 | 996.3 |
| 20260507212042 | 65 | 317 | 14.0 | 19.0 | 0.00 | 0.00 | 0.00 | 21 | 996.4 |
| 20260507211543 | 65 | 360 | 14.0 | 18.0 | 0.00 | 0.00 | 0.00 | 22 | 996.4 |
| 20260507211039 | 64 | 296 | 10.0 | 20.0 | 0.00 | 0.00 | 0.00 | 23 | 996.5 |
| 20260507210539 | 64 | 300 | 14.0 | 20.0 | 0.00 | 0.00 | 0.00 | 22 | 996.5 |
| 20260507210041 | 64 | 300 | 13.0 | 19.0 | 0.00 | 0.00 | 0.00 | 22 | 996.6 |
| 20260507205539 | 64 | 305 | 11.0 | 18.0 | 0.00 | 0.00 | 0.00 | 22 | 996.6 |
| 20260507205038 | 64 | 327 | 8.0 | 16.0 | 0.00 | 0.00 | 0.00 | 22 | 996.5 |
| 20260507204137 | 64 | 302 | 6.0 | 16.0 | 0.00 | 0.00 | 0.00 | 22 | 996.6 |
| 20260507203536 | 64 | 290 | 11.0 | 16.0 | 0.00 | 0.00 | 0.00 | 22 | 996.6 |
| 20260507203104 | 64 | 317 | 8.0 | 11.0 | 0.00 | 0.00 | 0.00 | 22 | 996.7 |
| 20260507202537 | 63 | 328 | 5.0 | 15.0 | 0.00 | 0.00 | 0.00 | 22 | 996.7 |
| 20260507202036 | 64 | 248 | 11.0 | 15.0 | 0.00 | 0.00 | 0.00 | 22 | 996.8 |
| 20260507201534 | 63 | 245 | 10.0 | 15.0 | 0.00 | 0.00 | 0.00 | 22 | 996.7 |
| 20260507201033 | 63 | 275 | 2.0 | 19.0 | 0.00 | 0.00 | 0.00 | 22 | 996.7 |
| 20260507200536 | 64 | 246 | 12.0 | 21.0 | 0.00 | 0.00 | 0.00 | 22 | 996.7 |
| 20260507200034 | 65 | 211 | 8.0 | 21.0 | 0.00 | 0.00 | 0.00 | 21 | 996.8 |
| 20260507195539 | 64 | 325 | 7.0 | 16.0 | 0.00 | 0.00 | 0.00 | 23 | 996.7 |
| 20260507195032 | 64 | 309 | 11.0 | 18.0 | 0.00 | 0.00 | 0.00 | 22 | 996.8 |
| 20260507194033 | 65 | 313 | 13.0 | 22.0 | 0.00 | 0.00 | 0.00 | 21 | 996.9 |
| 20260507193531 | 65 | 298 | 9.0 | 15.0 | 0.00 | 0.00 | 0.00 | 21 | 996.8 |
| 20260507193033 | 65 | 308 | 4.0 | 10.0 | 0.00 | 0.00 | 0.00 | 22 | 997.0 |
| 20260507192529 | 64 | 306 | 5.0 | 10.0 | 0.00 | 0.00 | 0.00 | 22 | 997.0 |
| 20260507192029 | 64 | 133 | 4.0 | 10.0 | 0.00 | 0.00 | 0.00 | 22 | 997.0 |
| 20260507191532 | 64 | 345 | 4.0 | 10.0 | 0.00 | 0.00 | 0.00 | 22 | 997.2 |
| 20260507191027 | 63 | 13 | 1.0 | 10.0 | 0.00 | 0.00 | 0.00 | 22 | 997.2 |
| 20260507190526 | 63 | 12 | 6.0 | 10.0 | 0.00 | 0.00 | 0.00 | 23 | 997.2 |
| 20260507190025 | 63 | 206 | 6.0 | 10.0 | 0.00 | 0.00 | 0.00 | 23 | 997.2 |
| 20260507185524 | 62 | 144 | 6.0 | 9.0 | 0.00 | 0.00 | 0.00 | 23 | 997.3 |
| 20260507185023 | 62 | 210 | 5.0 | 9.0 | 0.00 | 0.00 | 0.00 | 26 | 997.4 |
| 20260507184023 | 61 | 355 | 7.0 | 12.0 | 0.00 | 0.00 | 0.00 | 24 | 997.6 |
| 20260507183522 | 61 | 72 | 3.0 | 14.0 | 0.00 | 0.00 | 0.00 | 25 | 997.7 |
| 20260507183022 | 62 | 30 | 9.0 | 16.0 | 0.00 | 0.00 | 0.00 | 24 | 997.7 |
| 20260507182521 | 62 | 176 | 9.0 | 16.0 | 0.00 | 0.00 | 0.00 | 24 | 997.6 |
| 20260507182019 | 61 | 96 | 5.0 | 13.0 | 0.00 | 0.00 | 0.00 | 26 | 997.8 |
| 20260507181519 | 62 | 225 | 6.0 | 13.0 | 0.00 | 0.00 | 0.00 | 25 | 997.9 |
| 20260507181020 | 61 | 178 | 7.0 | 13.0 | 0.00 | 0.00 | 0.00 | 25 | 998.0 |
| 20260507180519 | 61 | 201 | 8.0 | 13.0 | 0.00 | 0.00 | 0.00 | 23 | 998.0 |
| 20260507180021 | 61 | 11 | 8.0 | 14.0 | 0.00 | 0.00 | 0.00 | 24 | 998.0 |
| 20260507175515 | 60 | 244 | 8.0 | 14.0 | 0.00 | 0.00 | 0.00 | 25 | 998.2 |
| 20260507175017 | 60 | 126 | 7.0 | 11.0 | 0.00 | 0.00 | 0.00 | 25 | 998.1 |
| 20260507174017 | 58 | 109 | 5.0 | 11.0 | 0.00 | 0.00 | 0.00 | 25 | 998.1 |
| 20260507173514 | 58 | 76 | 5.0 | 15.0 | 0.00 | 0.00 | 0.00 | 26 | 998.3 |
| 20260507173031 | 58 | 173 | 5.0 | 15.0 | 0.00 | 0.00 | 0.00 | 27 | 998.2 |
| 20260507172513 | 58 | 105 | 7.0 | 11.0 | 0.00 | 0.00 | 0.00 | 27 | 998.2 |
| 20260507172012 | 57 | 72 | 8.0 | 11.0 | 0.00 | 0.00 | 0.00 | 25 | 998.2 |
| 20260507171521 | 57 | 112 | 4.0 | 10.0 | 0.00 | 0.00 | 0.00 | 26 | 998.5 |
| 20260507171014 | 57 | 177 | 6.0 | 10.0 | 0.00 | 0.00 | 0.00 | 26 | 998.6 |
| 20260507170512 | 58 | 85 | 7.0 | 9.0 | 0.00 | 0.00 | 0.00 | 25 | 998.5 |
| 20260507170010 | 58 | 232 | 1.0 | 7.0 | 0.00 | 0.00 | 0.00 | 26 | 998.5 |
| 20260507165509 | 58 | 244 | 4.0 | 7.0 | 0.00 | 0.00 | 0.00 | 27 | 998.6 |
| 20260507165008 | 57 | 67 | 1.0 | 7.0 | 0.00 | 0.00 | 0.00 | 27 | 998.6 |
| 20260507164609 | 56 | 47 | 4.0 | 9.0 | 0.00 | 0.00 | 0.00 | 28 | 998.7 |
| 20260507164008 | 56 | 74 | 3.0 | 9.0 | 0.00 | 0.00 | 0.00 | 28 | 998.6 |
| 20260507163512 | 56 | 78 | 4.0 | 9.0 | 0.00 | 0.00 | 0.00 | 29 | 998.7 |
| 20260507163009 | 55 | 111 | 4.0 | 6.0 | 0.00 | 0.00 | 0.00 | 27 | 998.7 |
| 20260507162515 | 55 | 113 | 2.0 | 7.0 | 0.00 | 0.00 | 0.00 | 27 | 998.8 |
| 20260507162008 | 55 | 111 | 2.0 | 7.0 | 0.00 | 0.00 | 0.00 | 31 | 998.9 |
| 20260507161508 | 54 | 110 | 4.0 | 8.0 | 0.00 | 0.00 | 0.00 | 29 | 998.9 |
| 20260507161007 | 54 | 123 | 4.0 | 8.0 | 0.00 | 0.00 | 0.00 | 31 | 999.0 |
| 20260507160507 | 53 | 154 | 3.0 | 7.0 | 0.00 | 0.00 | 0.00 | 31 | 999.0 |
| 20260507160009 | 53 | 137 | 4.0 | 7.0 | 0.00 | 0.00 | 0.00 | 32 | 999.0 |
| 20260507155514 | 53 | 132 | 4.0 | 9.0 | 0.00 | 0.00 | 0.00 | 32 | 999.0 |
| 20260507155009 | 52 | 119 | 3.0 | 7.0 | 0.00 | 0.00 | 0.00 | 31 | 999.0 |
| 20260507154009 | 52 | 43 | 1.0 | 5.0 | 0.00 | 0.00 | 0.00 | 32 | 999.1 |
| 20260507153505 | 51 | 42 | 1.0 | 6.0 | 0.00 | 0.00 | 0.00 | 32 | 999.1 |
| 20260507153006 | 51 | 42 | 2.0 | 6.0 | 0.00 | 0.00 | 0.00 | 33 | 999.1 |
| 20260507152508 | 50 | 42 | 2.0 | 6.0 | 0.00 | 0.00 | 0.00 | 33 | 999.2 |
| 20260507152008 | 50 | 42 | 2.0 | 6.0 | 0.00 | 0.00 | 0.00 | 33 | 999.1 |
| 20260507151504 | 49 | 41 | 1.0 | 6.0 | 0.00 | 0.00 | 0.00 | 34 | 999.1 |
| 20260507151005 | 49 | 41 | 3.0 | 6.0 | 0.00 | 0.00 | 0.00 | 34 | 999.1 |
| 20260507150505 | 48 | 41 | 4.0 | 6.0 | 0.00 | 0.00 | 0.00 | 35 | 999.1 |
| 20260507150004 | 48 | 40 | 1.0 | 5.0 | 0.00 | 0.00 | 0.00 | 34 | 999.1 |
| 20260507145503 | 48 | 40 | 1.0 | 6.0 | 0.00 | 0.00 | 0.00 | 35 | 999.1 |
| 20260507145007 | 47 | 40 | 2.0 | 6.0 | 0.00 | 0.00 | 0.00 | 37 | 999.1 |
| 20260507144006 | 46 | 39 | 3.0 | 6.0 | 0.00 | 0.00 | 0.00 | 37 | 999.0 |
| 20260507143507 | 46 | 355 | 1.0 | 4.0 | 0.00 | 0.00 | 0.00 | 38 | 999.1 |
| 20260507143005 | 45 | 355 | 0.0 | 5.0 | 0.00 | 0.00 | 0.00 | 38 | 999.2 |
| 20260507142505 | 44 | 355 | 2.0 | 5.0 | 0.00 | 0.00 | 0.00 | 39 | 999.2 |
| 20260507142007 | 43 | 355 | 2.0 | 5.0 | 0.00 | 0.00 | 0.00 | 39 | 999.2 |
| 20260507141504 | 43 | 355 | 0.0 | 4.0 | 0.00 | 0.00 | 0.00 | 39 | 999.2 |
| 20260507141004 | 42 | 355 | 1.0 | 3.0 | 0.00 | 0.00 | 0.00 | 40 | 999.3 |
| 20260507140505 | 42 | 355 | 1.0 | 4.0 | 0.00 | 0.00 | 0.00 | 40 | 999.2 |
| 20260507140004 | 41 | 351 | 0.0 | 5.0 | 0.00 | 0.00 | 0.00 | 41 | 999.2 |
| 20260507135503 | 40 | 355 | 1.0 | 5.0 | 0.00 | 0.00 | 0.00 | 42 | 999.2 |
| 20260507135004 | 40 | 355 | 2.0 | 5.0 | 0.00 | 0.00 | 0.00 | 41 | 999.3 |
| 20260507134002 | 39 | 355 | 2.0 | 5.0 | 0.00 | 0.00 | 0.00 | 43 | 999.3 |
| 20260507133502 | 38 | 360 | 2.0 | 5.0 | 0.00 | 0.00 | 0.00 | 44 | 999.1 |
| 20260507133002 | 38 | 360 | 3.0 | 6.0 | 0.00 | 0.00 | 0.00 | 44 | 999.2 |
| 20260507132503 | 38 | 360 | 3.0 | 6.0 | 0.00 | 0.00 | 0.00 | 43 | 999.1 |
| 20260507132002 | 37 | 360 | 3.0 | 5.0 | 0.00 | 0.00 | 0.00 | 43 | 999.2 |
| 20260507131501 | 37 | 360 | 4.0 | 5.0 | 0.00 | 0.00 | 0.00 | 43 | 999.2 |
| 20260507131002 | 37 | 360 | 4.0 | 5.0 | 0.00 | 0.00 | 0.00 | 43 | 999.2 |
| 20260507130503 | 36 | 360 | 4.0 | 5.0 | 0.00 | 0.00 | 0.00 | 42 | 999.3 |
| 20260507130001 | 36 | 360 | 2.0 | 6.0 | 0.00 | 0.00 | 0.00 | 44 | 999.3 |
| 20260507125502 | 36 | 360 | 4.0 | 6.0 | 0.00 | 0.00 | 0.00 | 43 | 999.1 |
| 20260507125000 | 36 | 360 | 3.0 | 5.0 | 0.00 | 0.00 | 0.00 | 44 | 999.1 |
| 20260507124002 | 35 | 360 | 2.0 | 4.0 | 0.00 | 0.00 | 0.00 | 45 | 999.1 |
| 20260507123502 | 35 | 360 | 1.0 | 3.0 | 0.00 | 0.00 | 0.00 | 45 | 999.1 |
| 20260507123002 | 35 | 360 | 2.0 | 4.0 | 0.00 | 0.00 | 0.00 | 46 | 999.1 |
| 20260507122501 | 35 | 360 | 1.0 | 3.0 | 0.00 | 0.00 | 0.00 | 45 | 999.0 |
| 20260507122101 | 35 | 360 | 2.0 | 3.0 | 0.00 | 0.00 | 0.00 | 45 | 998.9 |
| 20260507121603 | 35 | 360 | 1.0 | 3.0 | 0.00 | 0.00 | 0.00 | 44 | 999.0 |
| 20260507121101 | 35 | 360 | 1.0 | 3.0 | 0.00 | 0.00 | 0.00 | 43 | 998.9 |
| 20260507120600 | 36 | 360 | 2.0 | 4.0 | 0.00 | 0.00 | 0.00 | 43 | 998.8 |
| 20260507120105 | 36 | 360 | 2.0 | 4.0 | 0.00 | 0.00 | 0.00 | 43 | 998.8 |
| 20260507115600 | 35 | 360 | 3.0 | 4.0 | 0.00 | 0.00 | 0.00 | 42 | 998.8 |
| 20260507115101 | 35 | 360 | 2.0 | 4.0 | 0.00 | 0.00 | 0.00 | 42 | 998.8 |
| 20260507114702 | 35 | 360 | 3.0 | 4.0 | 0.00 | 0.00 | 0.00 | 42 | 998.8 |
| 20260507114101 | 35 | 360 | 3.0 | 5.0 | 0.00 | 0.00 | 0.00 | 42 | 998.7 |
| 20260507113600 | 35 | 360 | 3.0 | 4.0 | 0.00 | 0.00 | 0.00 | 42 | 998.6 |
| 20260507113100 | 35 | 360 | 2.0 | 3.0 | 0.00 | 0.00 | 0.00 | 42 | 998.7 |
| 20260507112600 | 35 | 360 | 3.0 | 5.0 | 0.00 | 0.00 | 0.00 | 42 | 998.7 |
| 20260507112102 | 35 | 360 | 4.0 | 5.0 | 0.00 | 0.00 | 0.00 | 42 | 998.7 |
| 20260507111607 | 35 | 360 | 4.0 | 5.0 | 0.00 | 0.00 | 0.00 | 42 | 998.7 |
| 20260507111059 | 35 | 360 | 4.0 | 5.0 | 0.00 | 0.00 | 0.00 | 42 | 998.7 |
| 20260507110559 | 35 | 360 | 4.0 | 6.0 | 0.00 | 0.00 | 0.00 | 42 | 998.6 |
| 20260507105558 | 34 | 360 | 5.0 | 6.0 | 0.00 | 0.00 | 0.00 | 43 | 998.6 |
| 20260507105101 | 34 | 360 | 5.0 | 6.0 | 0.00 | 0.00 | 0.00 | 44 | 998.7 |
| 20260507104700 | 34 | 360 | 5.0 | 7.0 | 0.00 | 0.00 | 0.00 | 44 | 998.7 |
| 20260507104058 | 34 | 360 | 5.0 | 7.0 | 0.00 | 0.00 | 0.00 | 43 | 998.7 |
| 20260507103557 | 35 | 360 | 5.0 | 6.0 | 0.00 | 0.00 | 0.00 | 42 | 998.6 |
| 20260507103058 | 35 | 360 | 3.0 | 5.0 | 0.00 | 0.00 | 0.00 | 42 | 998.7 |
| 20260507102556 | 35 | 360 | 3.0 | 6.0 | 0.00 | 0.00 | 0.00 | 42 | 998.7 |
| 20260507102058 | 35 | 360 | 5.0 | 6.0 | 0.00 | 0.00 | 0.00 | 42 | 998.6 |
| 20260507101554 | 36 | 360 | 4.0 | 5.0 | 0.00 | 0.00 | 0.00 | 41 | 998.6 |
| 20260507101053 | 36 | 360 | 3.0 | 5.0 | 0.00 | 0.00 | 0.00 | 41 | 998.6 |
| 20260507100555 | 36 | 360 | 3.0 | 4.0 | 0.00 | 0.00 | 0.00 | 41 | 998.5 |
| 20260507100054 | 36 | 360 | 1.0 | 3.0 | 0.00 | 0.00 | 0.00 | 41 | 998.6 |
| 20260507095554 | 36 | 360 | 2.0 | 5.0 | 0.00 | 0.00 | 0.00 | 41 | 998.6 |
| 20260507095054 | 36 | 360 | 3.0 | 6.0 | 0.00 | 0.00 | 0.00 | 42 | 998.7 |
| 20260507094654 | 36 | 360 | 4.0 | 6.0 | 0.00 | 0.00 | 0.00 | 42 | 998.5 |
| 20260507094057 | 36 | 360 | 2.0 | 5.0 | 0.00 | 0.00 | 0.00 | 41 | 998.5 |
| 20260507093553 | 37 | 360 | 2.0 | 6.0 | 0.00 | 0.00 | 0.00 | 40 | 998.5 |
| 20260507093052 | 37 | 360 | 4.0 | 6.0 | 0.00 | 0.00 | 0.00 | 39 | 998.5 |
| 20260507092556 | 38 | 360 | 4.0 | 6.0 | 0.00 | 0.00 | 0.00 | 39 | 998.5 |
| 20260507092056 | 38 | 360 | 4.0 | 5.0 | 0.00 | 0.00 | 0.00 | 38 | 998.5 |
| 20260507091553 | 38 | 360 | 3.0 | 4.0 | 0.00 | 0.00 | 0.00 | 38 | 998.5 |
| 20260507091052 | 38 | 360 | 1.0 | 3.0 | 0.00 | 0.00 | 0.00 | 38 | 998.6 |
| 20260507090552 | 38 | 360 | 2.0 | 3.0 | 0.00 | 0.00 | 0.00 | 38 | 998.7 |
| 20260507090051 | 38 | 360 | 2.0 | 5.0 | 0.00 | 0.00 | 0.00 | 38 | 998.7 |
| 20260507085551 | 37 | 360 | 3.0 | 6.0 | 0.00 | 0.00 | 0.00 | 39 | 998.8 |
| 20260507085052 | 38 | 360 | 4.0 | 6.0 | 0.00 | 0.00 | 0.00 | 38 | 998.7 |
| 20260507084652 | 38 | 360 | 5.0 | 6.0 | 0.00 | 0.00 | 0.00 | 38 | 998.7 |
| 20260507084050 | 38 | 360 | 5.0 | 6.0 | 0.00 | 0.00 | 0.00 | 38 | 998.6 |
| 20260507083551 | 38 | 360 | 5.0 | 6.0 | 0.00 | 0.00 | 0.00 | 39 | 998.5 |
| 20260507083050 | 37 | 360 | 4.0 | 6.0 | 0.00 | 0.00 | 0.00 | 39 | 998.6 |
| 20260507082550 | 37 | 360 | 4.0 | 6.0 | 0.00 | 0.00 | 0.00 | 40 | 998.5 |
| 20260507082049 | 37 | 360 | 4.0 | 6.0 | 0.00 | 0.00 | 0.00 | 40 | 998.7 |
| 20260507081549 | 37 | 360 | 4.0 | 7.0 | 0.00 | 0.00 | 0.00 | 40 | 998.6 |
| 20260507081051 | 37 | 360 | 6.0 | 7.0 | 0.00 | 0.00 | 0.00 | 40 | 998.7 |
| 20260507080549 | 37 | 360 | 6.0 | 7.0 | 0.00 | 0.00 | 0.00 | 40 | 998.7 |
| 20260507080048 | 37 | 360 | 5.0 | 7.0 | 0.00 | 0.00 | 0.00 | 39 | 998.7 |
| 20260507075548 | 38 | 360 | 5.0 | 6.0 | 0.00 | 0.00 | 0.00 | 39 | 998.7 |
| 20260507075048 | 39 | 360 | 5.0 | 6.0 | 0.00 | 0.00 | 0.00 | 38 | 998.7 |
| 20260507074648 | 38 | 360 | 4.0 | 6.0 | 0.00 | 0.00 | 0.00 | 38 | 998.8 |
| 20260507074049 | 38 | 360 | 5.0 | 6.0 | 0.00 | 0.00 | 0.00 | 39 | 998.9 |
| 20260507073549 | 38 | 360 | 5.0 | 6.0 | 0.00 | 0.00 | 0.00 | 39 | 998.7 |
| 20260507073101 | 38 | 360 | 4.0 | 6.0 | 0.00 | 0.00 | 0.00 | 38 | 998.7 |
| 20260507072549 | 38 | 360 | 5.0 | 7.0 | 0.00 | 0.00 | 0.00 | 38 | 998.7 |
| 20260507072049 | 38 | 360 | 5.0 | 7.0 | 0.00 | 0.00 | 0.00 | 38 | 998.5 |
| 20260507071548 | 39 | 360 | 6.0 | 7.0 | 0.00 | 0.00 | 0.00 | 38 | 998.4 |
| 20260507071048 | 39 | 360 | 6.0 | 7.0 | 0.00 | 0.00 | 0.00 | 37 | 998.5 |
| 20260507070548 | 39 | 360 | 5.0 | 6.0 | 0.00 | 0.00 | 0.00 | 37 | 998.6 |
| 20260507070056 | 38 | 360 | 2.0 | 4.0 | 0.00 | 0.00 | 0.00 | 38 | 998.5 |
| 20260507065549 | 38 | 360 | 0.0 | 2.0 | 0.00 | 0.00 | 0.00 | 39 | 998.6 |
| 20260507065046 | 37 | 360 | 0.0 | 10.0 | 0.00 | 0.00 | 0.00 | 39 | 998.6 |
| 20260507064646 | 38 | 360 | 3.0 | 10.0 | 0.00 | 0.00 | 0.00 | 39 | 998.6 |
| 20260507064046 | 37 | 360 | 2.0 | 4.0 | 0.00 | 0.00 | 0.00 | 39 | 998.5 |
| 20260507063546 | 37 | 360 | 0.0 | 9.0 | 0.00 | 0.00 | 0.00 | 40 | 998.6 |
| 20260507063044 | 37 | 360 | 4.0 | 9.0 | 0.00 | 0.00 | 0.00 | 39 | 998.6 |
| 20260507062544 | 39 | 360 | 6.0 | 8.0 | 0.00 | 0.00 | 0.00 | 38 | 998.5 |
| 20260507062044 | 38 | 360 | 6.0 | 8.0 | 0.00 | 0.00 | 0.00 | 38 | 998.4 |
| 20260507061544 | 38 | 360 | 7.0 | 8.0 | 0.00 | 0.00 | 0.00 | 37 | 998.4 |
| 20260507061044 | 38 | 360 | 6.0 | 8.0 | 0.00 | 0.00 | 0.00 | 37 | 998.4 |
| 20260507060542 | 38 | 360 | 6.0 | 7.0 | 0.00 | 0.00 | 0.00 | 37 | 998.5 |
| 20260507060042 | 38 | 360 | 5.0 | 6.0 | 0.00 | 0.00 | 0.00 | 37 | 998.5 |
| 20260507055543 | 38 | 360 | 4.0 | 5.0 | 0.00 | 0.00 | 0.00 | 37 | 998.6 |
| 20260507055041 | 38 | 360 | 4.0 | 5.0 | 0.00 | 0.00 | 0.00 | 37 | 998.6 |
| 20260507054642 | 38 | 360 | 4.0 | 5.0 | 0.00 | 0.00 | 0.00 | 37 | 998.6 |
| 20260507054041 | 37 | 360 | 4.0 | 5.0 | 0.00 | 0.00 | 0.00 | 38 | 998.7 |
| 20260507053541 | 37 | 360 | 4.0 | 5.0 | 0.00 | 0.00 | 0.00 | 38 | 998.7 |
| 20260507053040 | 37 | 360 | 3.0 | 5.0 | 0.00 | 0.00 | 0.00 | 38 | 998.7 |
| 20260507052540 | 37 | 360 | 3.0 | 5.0 | 0.00 | 0.00 | 0.00 | 38 | 998.8 |
| 20260507052039 | 37 | 360 | 4.0 | 6.0 | 0.00 | 0.00 | 0.00 | 38 | 998.8 |
| 20260507051539 | 37 | 360 | 5.0 | 6.0 | 0.00 | 0.00 | 0.00 | 38 | 999.0 |
| 20260507051037 | 37 | 360 | 4.0 | 11.0 | 0.00 | 0.00 | 0.00 | 38 | 998.9 |
| 20260507050536 | 38 | 360 | 6.0 | 11.0 | 0.00 | 0.00 | 0.00 | 37 | 999.0 |
| 20260507050037 | 38 | 360 | 4.0 | 7.0 | 0.00 | 0.00 | 0.00 | 36 | 998.8 |
| 20260507045536 | 39 | 360 | 6.0 | 7.0 | 0.00 | 0.00 | 0.00 | 36 | 998.7 |
| 20260507045035 | 39 | 360 | 5.0 | 7.0 | 0.00 | 0.00 | 0.00 | 36 | 998.7 |
| 20260507044547 | 38 | 360 | 6.0 | 7.0 | 0.00 | 0.00 | 0.00 | 36 | 998.9 |
| 20260507044036 | 39 | 360 | 6.0 | 7.0 | 0.00 | 0.00 | 0.00 | 36 | 998.9 |
| 20260507043533 | 40 | 360 | 5.0 | 7.0 | 0.00 | 0.00 | 0.00 | 34 | 999.0 |
| 20260507043034 | 41 | 360 | 5.0 | 7.0 | 0.00 | 0.00 | 0.00 | 34 | 999.0 |
| 20260507042533 | 40 | 360 | 5.0 | 7.0 | 0.00 | 0.00 | 0.00 | 34 | 999.1 |
| 20260507042033 | 40 | 360 | 6.0 | 7.0 | 0.00 | 0.00 | 0.00 | 35 | 999.1 |
| 20260507041532 | 40 | 360 | 6.0 | 7.0 | 0.00 | 0.00 | 0.00 | 35 | 999.1 |
| 20260507041030 | 41 | 360 | 5.0 | 9.0 | 0.00 | 0.00 | 0.00 | 33 | 999.0 |
| 20260507040531 | 43 | 360 | 6.0 | 9.0 | 0.00 | 0.00 | 0.00 | 32 | 999.1 |
| 20260507040033 | 43 | 360 | 6.0 | 7.0 | 0.00 | 0.00 | 0.00 | 31 | 999.1 |
| 20260507035534 | 43 | 360 | 6.0 | 7.0 | 0.00 | 0.00 | 0.00 | 32 | 999.1 |
| 20260507035029 | 42 | 360 | 5.0 | 7.0 | 0.00 | 0.00 | 0.00 | 33 | 999.2 |
| 20260507034629 | 41 | 360 | 6.0 | 8.0 | 0.00 | 0.00 | 0.00 | 33 | 999.1 |
| 20260507034027 | 42 | 360 | 6.0 | 8.0 | 0.00 | 0.00 | 0.00 | 32 | 999.1 |
| 20260507033526 | 43 | 360 | 6.0 | 8.0 | 0.00 | 0.00 | 0.00 | 31 | 999.2 |
| 20260507033032 | 44 | 360 | 6.0 | 7.0 | 0.00 | 0.00 | 0.00 | 31 | 999.2 |
| 20260507032524 | 44 | 360 | 6.0 | 7.0 | 0.00 | 0.00 | 0.00 | 30 | 999.3 |
| 20260507032029 | 44 | 360 | 6.0 | 7.0 | 0.00 | 0.00 | 0.00 | 30 | 999.4 |
| 20260507031532 | 44 | 360 | 6.0 | 7.0 | 0.00 | 0.00 | 0.00 | 30 | 999.4 |
| 20260507031024 | 44 | 360 | 5.0 | 7.0 | 0.00 | 0.00 | 0.00 | 31 | 999.4 |
| 20260507030525 | 45 | 360 | 6.0 | 7.0 | 0.00 | 0.00 | 0.00 | 30 | 999.5 |
| 20260507030022 | 45 | 360 | 5.0 | 7.0 | 0.00 | 0.00 | 0.00 | 30 | 999.5 |
| 20260507025520 | 45 | 360 | 6.0 | 7.0 | 0.00 | 0.00 | 0.00 | 29 | 999.4 |
| 20260507025023 | 45 | 360 | 6.0 | 7.0 | 0.00 | 0.00 | 0.00 | 29 | 999.6 |
| 20260507024622 | 45 | 360 | 6.0 | 7.0 | 0.00 | 0.00 | 0.00 | 29 | 999.4 |
| 20260507024025 | 45 | 360 | 6.0 | 7.0 | 0.00 | 0.00 | 0.00 | 29 | 999.4 |
| 20260507023522 | 45 | 360 | 6.0 | 7.0 | 0.00 | 0.00 | 0.00 | 29 | 999.5 |
| 20260507023021 | 45 | 360 | 6.0 | 7.0 | 0.00 | 0.00 | 0.00 | 29 | 999.5 |
| 20260507022521 | 45 | 360 | 6.0 | 7.0 | 0.00 | 0.00 | 0.00 | 29 | 999.5 |
| 20260507022021 | 45 | 360 | 6.0 | 7.0 | 0.00 | 0.00 | 0.00 | 29 | 999.5 |
| 20260507021519 | 46 | 360 | 6.0 | 7.0 | 0.00 | 0.00 | 0.00 | 29 | 999.6 |
| 20260507021018 | 46 | 360 | 6.0 | 7.0 | 0.00 | 0.00 | 0.00 | 29 | 999.6 |
| 20260507020517 | 47 | 360 | 6.0 | 7.0 | 0.00 | 0.00 | 0.00 | 29 | 999.7 |
| 20260507020021 | 47 | 360 | 6.0 | 7.0 | 0.00 | 0.00 | 0.00 | 28 | 999.7 |
| 20260507015515 | 48 | 360 | 5.0 | 6.0 | 0.00 | 0.00 | 0.00 | 28 | 999.7 |
| 20260507015013 | 49 | 360 | 5.0 | 7.0 | 0.00 | 0.00 | 0.00 | 28 | 999.7 |
| 20260507014613 | 51 | 360 | 6.0 | 9.0 | 0.00 | 0.00 | 0.00 | 27 | 999.7 |
| 20260507014010 | 51 | 360 | 6.0 | 9.0 | 0.00 | 0.00 | 0.00 | 26 | 999.7 |
| 20260507013509 | 52 | 360 | 6.0 | 11.0 | 0.00 | 0.00 | 0.00 | 26 | 999.7 |
| 20260507013008 | 52 | 360 | 7.0 | 11.0 | 0.00 | 0.00 | 0.00 | 26 | 999.7 |
| 20260507012508 | 52 | 309 | 8.0 | 11.0 | 0.00 | 0.00 | 0.00 | 26 | 999.7 |
| 20260507012007 | 52 | 360 | 7.0 | 11.0 | 0.00 | 0.00 | 0.00 | 26 | 999.7 |
| 20260507011518 | 53 | 319 | 6.0 | 13.0 | 0.00 | 0.00 | 0.00 | 26 | 999.7 |
| 20260507011006 | 53 | 360 | 9.0 | 13.0 | 0.00 | 0.00 | 0.00 | 25 | 999.6 |
| 20260507010508 | 54 | 305 | 9.0 | 13.0 | 0.00 | 0.00 | 0.00 | 24 | 999.6 |
| 20260507010005 | 54 | 305 | 9.0 | 13.0 | 0.00 | 0.00 | 0.00 | 24 | 999.7 |
| 20260507005508 | 54 | 318 | 9.0 | 14.0 | 0.00 | 0.00 | 0.00 | 24 | 999.8 |
| 20260507005005 | 54 | 313 | 11.0 | 14.0 | 0.00 | 0.00 | 0.00 | 23 | 999.9 |
| 20260507004603 | 55 | 300 | 12.0 | 21.0 | 0.00 | 0.00 | 0.00 | 22 | 999.9 |
| 20260507004003 | 55 | 296 | 12.0 | 21.0 | 0.00 | 0.00 | 0.00 | 22 | 999.8 |
| 20260507003503 | 55 | 304 | 7.0 | 12.0 | 0.00 | 0.00 | 0.00 | 22 | 999.9 |
| 20260507003002 | 55 | 301 | 8.0 | 16.0 | 0.00 | 0.00 | 0.00 | 23 | 999.9 |
| 20260507002502 | 55 | 296 | 12.0 | 16.0 | 0.00 | 0.00 | 0.00 | 22 | 1000.0 |
| 20260507002002 | 55 | 313 | 9.0 | 16.0 | 0.00 | 0.00 | 0.00 | 23 | 1000.0 |
| 20260507001502 | 55 | 278 | 9.0 | 16.0 | 0.00 | 0.00 | 0.00 | 22 | 1000.1 |
| 20260507001002 | 55 | 307 | 11.0 | 15.0 | 0.00 | 0.00 | 0.00 | 22 | 1000.1 |
| 20260507000602 | 55 | 329 | 6.0 | 15.0 | 0.00 | 0.00 | 0.00 | 22 | 1000.0 |
| 20260507000100 | 55 | 317 | 9.0 | 22.0 | 0.00 | 0.00 | 0.00 | 23 | 1000.3 |
| 20260506235600 | 55 | 313 | 16.0 | 22.0 | 0.00 | 0.00 | 0.00 | 23 | 1000.2 |
| 20260506235102 | 55 | 296 | 15.0 | 22.0 | 0.00 | 0.00 | 0.00 | 23 | 1000.3 |
| 20260506234607 | 56 | 293 | 9.0 | 20.0 | 0.00 | 0.00 | 0.00 | 23 | 1000.2 |
| 20260506233600 | 56 | 283 | 14.0 | 22.0 | 0.00 | 0.00 | 0.00 | 23 | 1000.3 |
| 20260506233100 | 56 | 298 | 14.0 | 22.0 | 0.00 | 0.00 | 0.00 | 23 | 1000.3 |
| 20260506232558 | 56 | 305 | 10.0 | 20.0 | 0.00 | 0.00 | 0.00 | 22 | 1000.2 |
| 20260506232102 | 56 | 301 | 12.0 | 20.0 | 0.00 | 0.00 | 0.00 | 22 | 1000.3 |
| 20260506231559 | 56 | 319 | 13.0 | 18.0 | 0.00 | 0.00 | 0.00 | 23 | 1000.3 |
| 20260506231059 | 56 | 261 | 12.0 | 18.0 | 0.00 | 0.00 | 0.00 | 23 | 1000.3 |
| 20260506230558 | 56 | 288 | 11.0 | 16.0 | 0.00 | 0.00 | 0.00 | 23 | 1000.4 |
| 20260506230104 | 56 | 255 | 12.0 | 16.0 | 0.00 | 0.00 | 0.00 | 23 | 1000.4 |
| 20260506225557 | 56 | 234 | 9.0 | 20.0 | 0.00 | 0.00 | 0.00 | 23 | 1000.4 |
| 20260506225057 | 56 | 236 | 10.0 | 20.0 | 0.00 | 0.00 | 0.00 | 22 | 1000.6 |
| 20260506224601 | 56 | 271 | 13.0 | 22.0 | 0.00 | 0.00 | 0.00 | 22 | 1000.6 |
| 20260506223557 | 55 | 310 | 11.0 | 22.0 | 0.00 | 0.00 | 0.00 | 22 | 1000.6 |